FW4300 Weather Reports


time (UTC)temp
C
wind
direction
speed
KPH
gust
KPH
rain 1hr
cm
rain 24hr
cm
rain mn
cm
humidity
%
barometer
mb
20260507221501 26 84 0.0 0.0 0.00 0.28 0.28 64 1016.4
20260507221101 26 87 0.0 0.0 0.00 0.28 0.28 64 1016.4
20260507220600 27 92 0.0 0.0 0.00 0.28 0.28 64 1016.3
20260507220059 27 110 0.0 0.0 0.00 0.28 0.28 64 1016.3
20260507215559 27 117 0.0 0.0 0.00 0.28 0.28 63 1016.3
20260507215059 27 83 0.0 0.0 0.00 0.28 0.28 63 1016.1
20260507214559 28 162 0.0 0.0 0.00 0.28 0.28 62 1016.0
20260507214104 28 143 0.0 0.0 0.00 0.28 0.28 61 1016.0
20260507213558 28 102 0.0 0.0 0.00 0.28 0.28 60 1015.9
20260507213059 28 117 0.0 0.0 0.00 0.28 0.28 60 1015.9
20260507212558 28 113 0.0 0.0 0.00 0.28 0.28 59 1015.8
20260507212059 28 114 0.0 0.0 0.00 0.28 0.28 59 1015.8
20260507211604 28 140 0.0 0.0 0.00 0.28 0.28 59 1015.7
20260507211056 28 183 0.0 0.0 0.00 0.28 0.28 60 1015.8
20260507210556 28 168 0.0 0.0 0.00 0.28 0.28 60 1015.7
20260507210056 28 108 0.0 0.0 0.00 0.28 0.28 60 1015.8
20260507205555 28 99 0.0 0.0 0.00 0.28 0.28 60 1015.8
20260507205054 28 130 0.0 0.0 0.00 0.28 0.28 60 1015.7
20260507204555 28 117 0.0 0.0 0.00 0.28 0.28 59 1015.7
20260507204056 28 221 0.0 0.0 0.00 0.28 0.28 59 1015.6
20260507203557 28 128 0.0 0.0 0.00 0.28 0.28 60 1015.7
20260507203054 28 136 0.0 0.0 0.00 0.28 0.28 59 1015.6
20260507202554 28 126 0.0 0.0 0.00 0.28 0.28 59 1015.7
20260507202051 28 144 0.0 0.0 0.00 0.28 0.28 59 1015.7
20260507201552 28 148 0.0 0.0 0.00 0.28 0.28 59 1015.8
20260507201151 29 114 0.0 0.0 0.00 0.28 0.28 58 1015.8
20260507200550 29 168 0.0 0.0 0.00 0.28 0.28 57 1015.8
20260507200051 29 154 0.0 0.0 0.00 0.28 0.28 57 1015.8
20260507195549 29 156 0.0 0.0 0.00 0.28 0.28 58 1015.8
20260507195049 29 116 0.0 0.0 0.00 0.28 0.28 58 1016.0
20260507194548 29 146 0.0 0.0 0.00 0.28 0.28 59 1016.0
20260507194047 29 117 0.0 0.0 0.00 0.28 0.28 61 1016.0
20260507193546 29 208 0.0 0.0 0.00 0.28 0.28 60 1016.1
20260507193055 29 179 0.0 0.0 0.00 0.28 0.28 61 1016.1
20260507192546 30 165 0.0 0.0 0.00 0.28 0.28 61 1016.1
20260507192044 29 209 0.0 0.0 0.00 0.28 0.28 61 1016.1
20260507191544 29 82 0.0 0.0 0.00 0.28 0.28 60 1016.2
20260507191042 29 158 0.0 0.0 0.00 0.28 0.28 61 1016.2
20260507190542 29 170 0.0 0.0 0.00 0.28 0.28 61 1016.2
20260507190042 29 207 0.0 0.0 0.00 0.28 0.28 61 1016.3
20260507185541 30 170 0.0 0.0 0.00 0.28 0.28 62 1016.3
20260507185042 30 141 0.0 0.0 0.00 0.28 0.28 61 1016.2
20260507184541 30 152 0.0 0.0 0.00 0.28 0.28 60 1016.3
20260507184040 30 165 0.0 0.0 0.00 0.28 0.28 60 1016.2
20260507183538 30 153 0.0 0.0 0.00 0.28 0.28 61 1016.4
20260507183037 30 158 0.0 0.0 0.00 0.28 0.28 61 1016.3
20260507182537 29 149 0.0 0.0 0.00 0.28 0.28 62 1016.4
20260507182134 29 170 0.0 0.0 0.00 0.28 0.28 62 1016.6
20260507181534 29 143 0.0 0.0 0.00 0.28 0.28 62 1016.6
20260507181031 29 124 0.0 0.0 0.00 0.28 0.28 63 1016.7
20260507180528 28 124 0.0 0.0 0.00 0.28 0.28 63 1016.8
20260507180028 29 191 0.0 0.0 0.00 0.28 0.28 62 1017.0
20260507175527 28 154 0.0 0.0 0.00 0.28 0.28 63 1017.0
20260507175027 28 221 0.0 0.0 0.00 0.28 0.28 63 1017.1
20260507174542 29 197 0.0 0.0 0.00 0.28 0.28 64 1017.0
20260507174024 28 132 0.0 0.0 0.00 0.28 0.28 64 1017.0
20260507173525 28 166 0.0 0.0 0.00 0.28 0.28 65 1017.0
20260507173025 28 124 0.0 0.0 0.00 0.28 0.28 65 1017.2
20260507172521 27 137 0.0 0.0 0.00 0.28 0.28 65 1017.3
20260507172024 27 173 0.0 0.0 0.00 0.28 0.28 66 1017.4
20260507171520 27 103 0.0 0.0 0.00 0.28 0.28 66 1017.5
20260507171020 27 123 0.0 0.0 0.03 0.28 0.28 66 1017.6
20260507170518 27 186 0.0 0.0 0.03 0.28 0.28 65 1017.7
20260507170020 27 237 0.0 0.0 0.03 0.28 0.28 66 1017.8
20260507165524 27 188 0.0 0.0 0.03 0.28 0.28 66 1017.9
20260507165018 27 165 0.0 0.0 0.03 0.28 0.28 66 1018.0
20260507164516 27 139 0.0 0.0 0.03 0.28 0.28 66 1018.1
20260507164015 26 172 0.0 0.0 0.03 0.28 0.28 67 1018.1
20260507163516 26 137 0.0 0.0 0.03 0.28 0.28 68 1018.2
20260507163019 26 105 0.0 0.0 0.03 0.28 0.28 69 1018.2
20260507162514 26 191 0.0 0.0 0.03 0.28 0.28 69 1018.3
20260507162012 26 215 0.0 0.0 0.03 0.28 0.28 68 1018.5
20260507161514 26 173 0.0 0.0 0.00 0.25 0.25 69 1018.5
20260507161013 26 175 0.0 0.0 0.10 0.25 0.25 68 1018.5
20260507160512 26 79 0.0 0.0 0.20 0.25 0.25 68 1018.6
20260507160012 26 66 0.0 0.0 0.23 0.25 0.25 68 1018.5
20260507155511 26 219 0.0 0.0 0.23 0.25 0.25 68 1018.5
20260507155007 25 160 0.0 0.0 0.23 0.25 0.25 68 1018.6
20260507154509 25 146 0.0 0.0 0.23 0.25 0.25 69 1018.6
20260507154007 25 155 0.0 0.0 0.23 0.25 0.25 69 1018.7
20260507153505 25 124 0.0 0.0 0.23 0.25 0.25 69 1018.7
20260507153005 25 203 0.0 0.0 0.23 0.25 0.25 69 1018.7
20260507152504 25 203 0.0 0.0 0.23 0.25 0.25 69 1018.7
20260507152005 25 125 0.0 0.0 0.23 0.25 0.25 68 1018.8
20260507151502 25 203 0.0 0.0 0.20 0.23 0.23 68 1018.8
20260507151003 26 169 0.0 0.0 0.13 0.15 0.15 67 1018.7
20260507150502 26 208 0.0 0.0 0.03 0.05 0.05 67 1018.7
20260507150003 26 172 0.0 0.0 0.00 0.03 0.03 67 1018.7
20260507145603 26 169 0.0 0.0 0.00 0.03 0.03 66 1018.7
20260507145004 26 110 0.0 0.0 0.00 0.03 0.03 67 1018.6
20260507144501 26 111 0.0 0.0 0.00 0.03 0.03 66 1018.6
20260507144100 26 153 0.0 0.0 0.00 0.03 0.03 66 1018.7
20260507143600 27 118 0.0 0.0 0.00 0.03 0.03 66 1018.7
20260507143201 27 161 0.0 0.0 0.00 0.03 0.03 65 1018.7
20260507142659 27 150 0.0 0.0 0.00 0.03 0.03 66 1018.8
20260507142057 26 163 0.0 0.0 0.00 0.03 0.03 67 1018.8
20260507141619 26 137 0.0 0.0 0.00 0.03 0.03 66 1018.8
20260507141054 26 143 0.0 0.0 0.00 0.03 0.03 67 1018.9
20260507140554 26 133 0.0 0.0 0.00 0.03 0.03 67 1018.8
20260507140110 26 140 0.0 0.0 0.00 0.03 0.03 67 1018.8
20260507135552 26 112 0.0 0.0 0.00 0.03 0.03 67 1018.8
20260507135051 26 139 0.0 0.0 0.00 0.03 0.03 67 1018.7
20260507134551 26 109 0.0 0.0 0.00 0.03 0.03 67 1018.7
20260507134051 26 103 0.0 0.0 0.00 0.03 0.03 67 1018.7
20260507133551 27 181 0.0 0.0 0.00 0.03 0.03 66 1018.6
20260507133056 27 192 0.0 0.0 0.00 0.03 0.03 66 1018.5
20260507132548 27 143 0.0 0.0 0.00 0.03 0.03 65 1018.6
20260507132048 27 153 0.0 0.0 0.00 0.03 0.03 65 1018.5
20260507131612 27 172 0.0 0.0 0.00 0.03 0.03 64 1018.4
20260507131047 28 115 0.0 0.0 0.03 0.03 0.03 64 1018.3
20260507130544 27 116 0.0 0.0 0.03 0.03 0.03 65 1018.3
20260507130044 27 140 0.0 0.0 0.03 0.03 0.03 64 1018.4
20260507125543 27 158 0.0 0.0 0.03 0.03 0.03 64 1018.3
20260507125043 27 121 0.0 0.0 0.03 0.03 0.03 64 1018.4
20260507124642 27 139 0.0 0.0 0.03 0.03 0.03 64 1018.4
20260507124039 27 115 0.0 0.0 0.03 0.03 0.03 65 1018.4
20260507123539 26 166 0.0 0.0 0.03 0.03 0.03 66 1018.3
20260507123043 26 98 0.0 0.0 0.03 0.03 0.03 66 1018.2
20260507122536 26 129 0.0 0.0 0.03 0.03 0.03 65 1018.1
20260507122037 27 162 0.0 0.0 0.03 0.03 0.03 65 1018.0
20260507121534 26 124 0.0 0.0 0.03 0.03 0.03 66 1018.0
20260507121033 26 125 0.0 0.0 0.00 0.00 0.00 66 1017.9
20260507120531 26 126 0.0 0.0 0.00 0.00 0.00 66 1017.9
20260507120032 26 120 0.0 0.0 0.00 0.00 0.00 68 1017.9
20260507115527 26 126 0.0 0.0 0.00 0.00 0.00 68 1017.9
20260507115027 26 127 0.0 0.0 0.00 0.00 0.00 68 1017.9
20260507114526 26 127 0.0 0.0 0.00 0.00 0.00 68 1017.9
20260507114026 26 210 0.0 0.0 0.00 0.00 0.00 68 1017.8
20260507113525 26 129 0.0 0.0 0.00 0.00 0.00 68 1017.7
20260507113056 26 151 0.0 0.0 0.00 0.00 0.00 68 1017.7
20260507112525 26 188 0.0 0.0 0.00 0.00 0.00 68 1017.7
20260507112023 26 132 0.0 0.0 0.00 0.00 0.00 68 1017.7
20260507111523 26 160 0.0 0.0 0.00 0.00 0.00 69 1017.6
20260507111018 25 195 0.0 0.0 0.00 0.00 0.00 70 1017.5
20260507110516 25 113 0.0 0.0 0.00 0.00 0.00 74 1017.7
20260507110014 25 125 0.0 0.0 0.00 0.00 0.00 76 1017.7
20260507105513 25 165 0.0 0.0 0.00 0.00 0.00 77 1017.7
20260507105011 24 134 0.0 0.0 0.00 0.00 0.00 77 1017.6
20260507104514 24 139 0.0 0.0 0.00 0.00 0.00 77 1017.6
20260507104010 24 136 0.0 0.0 0.00 0.00 0.00 77 1017.6
20260507103507 -17 0.0 0.0 0.00 0.00 0.00 1017.5
20260507103006 -17 0.0 0.0 0.00 0.00 0.00 1017.5
20260507102503 -17 0.0 0.0 0.00 0.00 0.00 1017.4
20260507102002 -17 0.0 0.0 0.00 0.00 0.00 1017.3
20260507101601 -17 0.0 0.0 0.00 0.00 0.00 1017.2
20260507101101 -17 0.0 0.0 0.00 0.00 0.00 1017.0
20260507100557 -17 0.0 0.0 0.00 0.00 0.00 1017.1
20260507100059 -17 0.0 0.0 0.00 0.00 0.00 1017.0
20260507095554 -17 0.0 0.0 0.00 0.00 0.00 1017.3
20260507095053 -17 0.0 0.0 0.00 0.00 0.00 1017.3
20260507094601 -17 0.0 0.0 0.00 0.00 0.00 1017.2
20260507094051 -17 0.0 0.0 0.00 0.00 0.00 1017.2
20260507093546 -17 0.0 0.0 0.00 0.00 0.00 1017.3
20260507093045 -17 0.0 0.0 0.00 0.00 0.00 1017.4
20260507092544 -17 0.0 0.0 0.00 0.00 0.00 1017.3
20260507092046 -17 0.0 0.0 0.00 0.00 0.00 1017.3
20260507091543 -17 0.0 0.0 0.00 0.00 0.00 1017.3
20260507091041 -17 0.0 0.0 0.00 0.00 0.00 1017.4
20260507090536 -17 0.0 0.0 0.00 0.00 0.00 1017.4
20260507090035 -17 0.0 0.0 0.00 0.00 0.00 1017.4
20260507085533 -17 0.0 0.0 0.00 0.00 0.00 1017.2
20260507085032 -17 0.0 0.0 0.00 0.00 0.00 1017.3
20260507084546 -17 0.0 0.0 0.00 0.00 0.00 1017.3
20260507084028 -17 114 0.0 0.0 0.00 0.00 0.00 1017.4
20260507083527 -17 114 0.0 0.0 0.00 0.00 0.00 1017.2
20260507083026 -17 108 0.0 0.0 0.00 0.00 0.00 1017.2
20260507082524 24 158 0.0 0.0 0.00 0.00 0.00 72 1017.1
20260507082023 24 205 0.0 0.0 0.00 0.00 0.00 71 1017.1
20260507081523 24 176 0.0 0.0 0.00 0.00 0.00 71 1017.0
20260507081024 24 161 0.0 0.0 0.00 0.00 0.00 71 1017.0
20260507080520 24 159 0.0 0.0 0.00 0.00 0.00 71 1017.0
20260507080020 24 169 0.0 0.0 0.00 0.00 0.00 71 1017.0
20260507075519 24 148 0.0 0.0 0.00 0.00 0.00 71 1017.2
20260507075022 24 200 0.0 0.0 0.00 0.00 0.00 71 1017.2
20260507074518 24 115 0.0 0.0 0.00 0.00 0.00 71 1017.2
20260507074015 24 177 0.0 0.0 0.00 0.00 0.00 71 1017.2
20260507073517 24 165 0.0 0.0 0.00 0.00 0.00 71 1017.2
20260507073017 24 172 0.0 0.0 0.00 0.00 0.00 71 1017.2
20260507072514 24 123 0.0 0.0 0.00 0.00 0.00 71 1017.2
20260507072015 24 127 0.0 0.0 0.00 0.00 0.00 71 1017.2
20260507071516 24 210 0.0 0.0 0.00 0.00 0.00 71 1017.3
20260507071011 24 184 0.0 0.0 0.00 0.00 0.00 71 1017.2
20260507070510 24 203 0.0 0.0 0.00 0.00 0.00 71 1017.4
20260507070017 24 136 0.0 0.0 0.00 0.00 0.00 71 1017.3
20260507065507 24 205 0.0 0.0 0.00 0.00 0.00 71 1017.4
20260507065006 24 169 0.0 0.0 0.00 0.00 0.00 71 1017.4
20260507064507 24 122 0.0 0.0 0.00 0.00 0.00 71 1017.5
20260507064005 24 158 0.0 0.0 0.00 0.00 0.00 70 1017.5
20260507063503 24 176 0.0 0.0 0.00 0.00 0.00 70 1017.5
20260507063003 24 139 0.0 0.0 0.00 0.00 0.00 70 1017.7
20260507062504 24 124 0.0 0.0 0.00 0.00 0.00 70 1017.7
20260507062002 24 108 0.0 0.0 0.00 0.00 0.00 70 1017.8
20260507061601 24 172 0.0 0.0 0.00 0.00 0.00 70 1017.8
20260507061059 24 181 0.0 0.0 0.00 0.00 0.00 70 1017.8
20260507060600 24 152 0.0 0.0 0.00 0.00 0.00 69 1017.9
20260507060059 24 143 0.0 0.0 0.00 0.00 0.00 69 1017.9
20260507055555 24 123 0.0 0.0 0.00 0.00 0.00 69 1018.0
20260507055055 24 131 0.0 0.0 0.00 0.00 0.00 71 1018.1
20260507054553 24 102 0.0 0.0 0.00 0.00 0.00 71 1018.0
20260507054055 24 130 0.0 0.0 0.00 0.00 0.00 72 1018.1
20260507053551 24 89 0.0 0.0 0.00 0.00 0.00 72 1018.3
20260507053051 24 185 0.0 0.0 0.00 0.00 0.00 72 1018.3
20260507052548 24 165 0.0 0.0 0.00 0.00 0.00 72 1018.3
20260507052048 24 121 0.0 0.0 0.00 0.00 0.00 72 1018.5
20260507051547 24 182 0.0 0.0 0.00 0.00 0.00 72 1018.7
20260507051046 24 156 0.0 0.0 0.00 0.00 0.00 72 1018.7
20260507050548 24 172 0.0 0.0 0.00 0.00 0.00 71 1018.8
20260507045543 24 101 0.0 0.0 0.00 0.00 0.00 71 1019.0
20260507045041 24 136 0.0 0.0 0.00 0.00 0.00 71 1019.0
20260507044551 24 165 0.0 0.0 0.00 0.00 0.00 71 1019.1
20260507044044 24 188 0.0 0.0 0.00 0.00 0.00 71 1019.1
20260507043539 24 172 0.0 0.0 0.00 0.00 0.00 71 1019.2
20260507043039 25 174 0.0 0.0 0.00 0.00 0.00 71 1019.2
20260507042543 25 153 0.0 0.0 0.00 0.00 0.00 71 1019.3
20260507042039 25 141 0.0 0.0 0.00 0.00 0.00 71 1019.3
20260507041539 25 141 0.0 0.0 0.00 0.00 0.00 71 1019.4
20260507041036 25 127 0.0 0.0 0.00 0.00 0.00 71 1019.4
20260507040535 25 153 0.0 0.0 0.00 0.00 0.00 71 1019.4
20260507040034 25 136 0.0 0.0 0.00 0.00 0.00 71 1019.4
20260507035535 25 110 0.0 0.0 0.00 0.00 0.00 70 1019.5
20260507035034 25 165 0.0 0.0 0.00 0.00 0.00 70 1019.5
20260507034539 25 117 0.0 0.0 0.00 0.00 0.00 70 1019.5
20260507034033 25 124 0.0 0.0 0.00 0.00 0.00 70 1019.5
20260507033532 25 146 0.0 0.0 0.00 0.00 0.00 70 1019.5
20260507033040 25 159 0.0 0.0 0.00 0.00 0.00 70 1019.6
20260507032533 25 108 0.0 0.0 0.00 0.00 0.00 70 1019.5
20260507032032 25 117 0.0 0.0 0.00 0.00 0.00 70 1019.6
20260507031534 25 105 0.0 0.0 0.00 0.00 0.00 70 1019.6
20260507031036 25 132 0.0 0.0 0.00 0.00 0.00 69 1019.6
20260507030532 25 206 0.0 0.0 0.00 0.00 0.00 69 1019.6
20260507030036 25 120 0.0 0.0 0.00 0.00 0.00 69 1019.6
20260507025531 25 149 0.0 0.0 0.00 0.00 0.00 68 1019.6
20260507025032 25 128 0.0 0.0 0.00 0.00 0.00 68 1019.7
20260507024541 25 117 0.0 0.0 0.00 0.00 0.00 67 1019.6
20260507024032 25 128 0.0 0.0 0.00 0.00 0.00 67 1019.5
20260507023530 25 127 0.0 0.0 0.00 0.00 0.00 67 1019.6
20260507023031 25 145 0.0 0.0 0.00 0.00 0.00 67 1019.6
20260507022531 25 113 0.0 0.0 0.00 0.00 0.00 67 1019.5
20260507022031 25 139 0.0 0.0 0.00 0.00 0.00 67 1019.6
20260507021546 25 131 0.0 0.0 0.00 0.00 0.00 67 1019.6
20260507021030 25 151 0.0 0.0 0.00 0.00 0.00 67 1019.5
20260507020530 25 125 0.0 0.0 0.00 0.00 0.00 67 1019.5
20260507020033 25 135 0.0 0.0 0.00 0.00 0.00 67 1019.5
20260507015529 25 105 0.0 0.0 0.00 0.00 0.00 66 1019.5
20260507015029 26 146 0.0 0.0 0.00 0.00 0.00 66 1019.5
20260507014529 25 110 0.0 0.0 0.00 0.00 0.00 67 1019.4
20260507014031 25 123 0.0 0.0 0.00 0.00 0.00 67 1019.3
20260507013529 25 126 0.0 0.0 0.00 0.00 0.00 67 1019.3
20260507013034 25 131 0.0 0.0 0.00 0.00 0.00 67 1019.3
20260507012529 25 121 0.0 0.0 0.00 0.00 0.00 67 1019.2
20260507012028 25 210 0.0 0.0 0.00 0.00 0.00 67 1019.3
20260507011532 25 167 0.0 0.0 0.00 0.00 0.00 67 1019.2
20260507011027 25 123 0.0 0.0 0.00 0.00 0.00 67 1019.3
20260507010527 25 124 0.0 0.0 0.00 0.00 0.00 67 1019.3
20260507010038 25 117 0.0 0.0 0.00 0.00 0.00 67 1019.2
20260507005527 25 120 0.0 0.0 0.00 0.00 0.00 67 1019.2
20260507005030 25 120 0.0 0.0 0.00 0.00 0.00 67 1019.1
20260507004527 25 120 0.0 0.0 0.00 0.00 0.00 67 1019.1
20260507004027 25 115 0.0 0.0 0.00 0.00 0.00 66 1019.0
20260507003527 25 115 0.0 0.0 0.00 0.00 0.00 66 1019.0
20260507003026 25 115 0.0 0.0 0.00 0.00 0.00 66 1018.8
20260507002526 25 115 0.0 0.0 0.00 0.00 0.00 66 1018.7
20260507002026 25 115 0.0 0.0 0.00 0.00 0.00 65 1018.8
20260507001528 25 115 0.0 0.0 0.00 0.00 0.00 66 1018.7
20260507001025 25 115 0.0 0.0 0.00 0.00 0.00 66 1018.7
20260507000525 25 92 0.0 0.0 0.00 0.00 0.00 66 1018.7
20260507000032 25 110 0.0 0.0 0.00 0.00 0.00 66 1018.6
20260506235524 26 117 0.0 0.0 0.00 0.00 0.00 66 1018.6
20260506235025 26 117 0.0 0.0 0.00 0.00 0.00 66 1018.5
20260506234524 26 133 0.0 0.0 0.00 0.00 0.00 66 1018.4
20260506234024 26 124 0.0 0.0 0.00 0.00 0.00 66 1018.4
20260506233524 26 109 0.0 0.0 0.00 0.00 0.00 66 1018.3
20260506233024 26 120 0.0 0.0 0.00 0.00 0.00 66 1018.2
20260506232523 26 116 0.0 0.0 0.00 0.00 0.00 66 1018.3
20260506232024 26 122 0.0 0.0 0.00 0.00 0.00 66 1018.2
20260506231526 26 114 0.0 0.0 0.00 0.00 0.00 66 1018.0
20260506231023 26 120 0.0 0.0 0.00 0.00 0.00 66 1018.1
20260506230523 26 134 0.0 0.0 0.00 0.00 0.00 66 1017.9
20260506230025 26 94 0.0 0.0 0.00 0.00 0.00 65 1017.9
20260506225522 26 135 0.0 0.0 0.00 0.00 0.00 65 1017.8
20260506225022 26 96 0.0 0.0 0.00 0.00 0.00 65 1017.8
20260506224521 26 117 0.0 0.0 0.00 0.00 0.00 65 1017.7
20260506224021 26 149 0.0 0.0 0.00 0.00 0.00 65 1017.6
20260506223521 27 84 0.0 0.0 0.00 0.00 0.00 64 1017.4
20260506223021 27 168 0.0 0.0 0.00 0.00 0.00 64 1017.4
20260506222522 27 96 0.0 0.0 0.00 0.00 0.00 64 1017.3
20260506222021 27 89 0.0 0.0 0.00 0.00 0.00 64 1017.3